Location: Unspecified
(33.2407°S, 0.0000°E)
Time: 18:48:33
(UTC+00:00)

Envisat - Pass Details

Date: 28 May 2019
Orbit: 764 x 766 km, 98.1° (Epoch: 18 June)

Event Time Altitude Azimuth Distance (km) Brightness Sun altitude
Rises 06:16:21 0° 22° (NNE) 3,218 6.9 -7.8°
Reaches altitude 10° 06:18:39 10° 25° (NNE) 2,300 6.2 -7.3°
Maximum altitude 06:23:40 64° 105° (ESE) 853 3.5 -6.4°
Drops below altitude 10° 06:28:45 10° 185° (S) 2,330 5.2 -5.4°
Sets 06:31:06 0° 188° (S) 3,264 6.0 -4.9°
